Preview of NWS' New Version of Forecast
This preview is not operational and should not be used for support decisions.

Regional Weather Roundup (RWR)

Issued by National Weather Service (NWS)

                            
000
ASCA42 TJSJ 172310
RWRPR 
PUERTO RICO/U.S. VIRGIN ISLANDS HOURLY WEATHER ROUNDUP
NATIONAL WEATHER SERVICE SAN JUAN PR
700 PM AST TUE SEP 17 2019

PRZ001>002-007>008-010-180000-
PUERTO RICO
  
CITY           SKY/WX    TMP DP  RH WIND       PRES   REMARKS
SAN JUAN LMM   PTCLDY    84  75  74 E10       29.88R HX  92           
AGUADILLA      CLEAR     82  75  78 W3        29.89R                  
CEIBA          MOCLDY    84  77  79 E14       29.90S HX  94           
$$

VIZ001>002-180000-
U.S. VIRGIN ISLANDS
  
CITY           SKY/WX    TMP DP  RH WIND       PRES   REMARKS
CHARLOTTE AMA  PTCLDY    84  73  70 E15       29.88R HX  91           
CHRISTIANSTED  PTCLDY    84  73  70 E16G22    29.89R HX  91           
$$

HOURLY WEATHER ROUNDUP FOR THE NEWS MEDIA
  
CITY           SKY/WX    TMP DP  RH WIND       PRES   REMARKS
ORLANDO        FAIR      88  62  41 NE7       29.92R                  
NEW YORK       FAIR      72  36  26 NE13      30.11R                  
NEWARK         FAIR      74  39  28 NE15      30.10R                  
CHICAGO        MOCLDY    74  63  68 E10       30.11S                  
HARTFORD       FAIR      58  51  78 NE5       30.13R                  
BOSTON         MOCLDY    63  50  62 E9        30.15R                  
DALLAS         MOSUNNY   93  64  38 SE13      29.89F HX  94           
PHILADELPHIA   FAIR      75  43  31 N13G21    30.10R                  
LOS ANGELES    MOSUNNY   77  62  59 W12       29.90F                  
WASHINGTON DC  FAIR      74  57  55 NE6       30.08S